Location: Shandelee
(41.8790°N, 74.8713°W)
Time: 12:51:53
(UTC+00:00)

Cosmos 1408 - Pass Details

Date: 29 October 2020
Orbit: 470 x 492 km, 82.6° (Epoch: 01 December)

Event Time Altitude Azimuth Distance (km) Brightness Sun altitude
Rises 22:56:15 0° 1° (N) 2,558 6.1 -11.6°
Reaches altitude 10° 22:58:30 10° 11° (NNE) 1,677 5.1 -12.0°
Maximum altitude 23:01:50 33° 77° (ENE) 843 3.2 -12.6°
Drops below altitude 10° 23:05:11 10° 143° (SE) 1,675 5.0 -13.2°
Sets 23:07:26 0° 153° (SSE) 2,555 6.0 -13.7°
